Weather History for St. Cloud, MN

Change the Weather History Date:

Friday, March 7, 2014

  Actual Average Record
Temperature  
Mean Temperature 27 °F 25 °F  
Max Temperature 31 °F 34 °F 73 °F (1987)
Min Temperature 22 °F 16 °F -20 °F (1945)
Degree Days  
Heating Degree Days 38 40  
Month to date heating degree days 398 288  
Since 1 July heating degree days 7607 6734  
Cooling Degree Days 0 0  
Month to date cooling degree days 0 0  
Year to date cooling degree days 0 0  
Moisture  
Dew Point 21 °F    
Average Humidity 75    
Maximum Humidity 92    
Minimum Humidity 58    
Precipitation  
Precipitation 0.11 in 0.04 in 0.45 in (1950)
Month to date precipitation 0.11 0.26  
Year to date precipitation 2.62 1.50  
Snow  
Snow 0.00 in 0.40 in 9.00 in (1917)
Month to date snowfall 0.1 2.4  
Since 1 July snowfall 54.4 36.6  
Snow Depth 20.00 in    
Sea Level Pressure  
Sea Level Pressure 29.95 in    
Wind  
Wind Speed 9 mph (NNW)    
Max Wind Speed 21 mph    
Max Gust Speed 26 mph    
Visibility 6 miles    
Events Rain    
T = Trace of Precipitation, MM = Missing Value Source: NWS Daily Summary

Daily Weather History Graph

Daily Weather History Graph

Search for Another Location

Airport:

Trip Planner

Search our weather history database for the weather conditions in past years. The results will help you decide how hot, cold, wet, or windy it might be!

Date:

Astronomy

Mar. 07, 2014 Rise Set
Actual Time 6:43 AM CST 6:11 PM CST
Civil Twilight 6:14 AM CST 6:41 PM CST
Nautical Twilight 5:39 AM CST 7:15 PM CST
Astronomical Twilight 5:05 AM CST 7:50 PM CST
Moon 10:19 AM CST (3/7) 12:34 AM CST (3/7)
Length of Visible Light 12h 26m
Length of Day
11h 27m
Waxing Crescent, 42% of the Moon is Illuminated
Mar 7
Waxing Crescent
Mar 8
First Quarter
Mar 16
Full
Mar 23
Last Quarter
Mar 30
New

Hourly Weather History & Observations

Time (CST) Temp. Windchill Dew Point Humidity Pressure Visibility Wind Dir Wind Speed Gust Speed Precip Events Conditions
12:53 AM 25.0 °F 18.1 °F 21.0 °F 85% 29.83 in 4.0 mi South 5.8 mph - N/A   Overcast
1:53 AM 26.1 °F 20.5 °F 21.0 °F 81% 29.82 in 3.0 mi SE 4.6 mph - N/A   Haze
2:27 AM 26.6 °F 21.2 °F 21.2 °F 80% 29.75 in 3.0 mi SE 4.6 mph - N/A   Haze
2:53 AM 26.1 °F - 21.9 °F 84% 29.81 in 3.0 mi Calm Calm - N/A   Overcast
3:53 AM 27.0 °F - 21.0 °F 78% 29.81 in 3.0 mi Calm Calm - N/A   Haze
4:50 AM 26.6 °F - 23.0 °F 86% 29.76 in 2.5 mi Calm Calm - N/A   Overcast
4:53 AM 27.0 °F - 23.0 °F 85% 29.83 in 2.5 mi Calm Calm - N/A   Overcast
5:06 AM 26.6 °F - 23.0 °F 86% 29.75 in 2.5 mi Calm Calm - 0.00 in   Overcast
5:18 AM 28.4 °F 24.6 °F 24.8 °F 86% 29.75 in 2.0 mi ENE 3.5 mph - 0.01 in Rain Light Freezing Rain
5:23 AM 28.4 °F 23.3 °F 24.8 °F 86% 29.75 in 1.8 mi NE 4.6 mph - 0.02 in Rain Light Freezing Rain
5:31 AM 28.4 °F 22.2 °F 24.8 °F 86% 29.74 in 1.5 mi ENE 5.8 mph - 0.05 in Rain Light Freezing Rain
5:43 AM 28.4 °F - 26.6 °F 93% 29.75 in 1.5 mi Calm Calm - 0.08 in Rain Light Freezing Rain
5:53 AM 28.9 °F - 26.1 °F 89% 29.83 in 1.8 mi Calm Calm - 0.08 in Rain Light Freezing Rain
6:44 AM 30.2 °F 25.4 °F 26.6 °F 86% 29.79 in 2.0 mi West 4.6 mph - 0.01 in   Overcast
6:53 AM 30.0 °F 25.2 °F 26.1 °F 85% 29.86 in 1.8 mi WNW 4.6 mph - 0.01 in   Overcast
7:53 AM 30.0 °F 24.1 °F 26.1 °F 85% 29.88 in 1.0 mi West 5.8 mph - N/A   Overcast
8:04 AM 30.2 °F 25.4 °F 26.6 °F 86% 29.81 in 0.8 mi WNW 4.6 mph - N/A   Overcast
8:51 AM 30.2 °F 19.3 °F 26.6 °F 86% 29.83 in 1.2 mi NW 15.0 mph 19.6 mph N/A   Overcast
8:53 AM 30.9 °F 19.8 °F 27.0 °F 85% 29.90 in 1.5 mi NW 16.1 mph - N/A   Overcast
9:06 AM 30.2 °F 18.5 °F 26.6 °F 86% 29.84 in 2.0 mi NW 17.3 mph 20.7 mph 0.01 in   Haze
9:24 AM 30.2 °F 18.5 °F 23.0 °F 75% 29.84 in 3.0 mi NW 17.3 mph - 0.02 in   Haze
9:34 AM 28.4 °F 17.5 °F 23.0 °F 80% 29.85 in 3.0 mi NW 13.8 mph - 0.02 in   Haze
9:53 AM 28.9 °F 17.3 °F 21.9 °F 75% 29.94 in 4.0 mi NW 16.1 mph - 0.02 in   Haze
10:04 AM 28.4 °F 15.8 °F 21.2 °F 74% 29.87 in 4.0 mi NW 18.4 mph - N/A   Haze
10:53 AM 28.0 °F 15.3 °F 21.0 °F 75% 29.96 in 6.0 mi NW 18.4 mph - N/A   Haze
11:53 AM 28.0 °F 15.7 °F 19.9 °F 72% 29.99 in 8.0 mi NNW 17.3 mph 23.0 mph N/A   Overcast
12:53 PM 27.0 °F 15.2 °F 19.0 °F 72% 30.01 in 10.0 mi NW 15.0 mph 23.0 mph N/A   Overcast
1:53 PM 28.0 °F 17.0 °F 19.0 °F 69% 30.03 in 10.0 mi NNW 13.8 mph 20.7 mph N/A   Overcast
2:53 PM 28.0 °F 16.5 °F 19.0 °F 69% 30.04 in 10.0 mi NNW 15.0 mph 21.9 mph N/A   Overcast
3:53 PM 28.9 °F 17.7 °F 19.0 °F 67% 30.07 in 10.0 mi NNW 15.0 mph 20.7 mph N/A   Overcast
4:37 PM 28.4 °F 19.1 °F 17.6 °F 64% 30.02 in 10.0 mi North 10.4 mph 21.9 mph N/A   Overcast
4:44 PM 28.4 °F 17.0 °F 17.6 °F 64% 30.03 in 10.0 mi North 15.0 mph 21.9 mph N/A   Overcast
4:53 PM 28.0 °F 15.7 °F 17.1 °F 63% 30.11 in 10.0 mi North 17.3 mph - N/A   Overcast
5:53 PM 28.0 °F 18.1 °F 16.0 °F 61% 30.14 in 10.0 mi North 11.5 mph - N/A   Overcast
6:53 PM 27.0 °F 18.7 °F 16.0 °F 63% 30.18 in 10.0 mi North 8.1 mph - N/A   Overcast
7:14 PM 26.6 °F 18.2 °F 15.8 °F 64% 30.12 in 10.0 mi North 8.1 mph - N/A   Overcast
7:53 PM 25.0 °F 17.1 °F 14.0 °F 63% 30.20 in 10.0 mi North 6.9 mph - N/A   Scattered Clouds
8:53 PM 23.0 °F 14.7 °F 14.0 °F 68% 30.22 in 10.0 mi North 6.9 mph - N/A   Mostly Cloudy
9:53 PM 24.1 °F 14.4 °F 14.0 °F 65% 30.25 in 10.0 mi North 9.2 mph - N/A   Overcast
10:53 PM 23.0 °F 13.1 °F 12.9 °F 65% 30.27 in 10.0 mi North 9.2 mph - N/A   Overcast
11:48 PM 21.2 °F 12.6 °F 12.2 °F 68% 30.20 in 10.0 mi North 6.9 mph - N/A   Overcast
11:53 PM 21.9 °F 14.5 °F 12.9 °F 68% 30.28 in 10.0 mi NNW 5.8 mph - N/A   Overcast